Regional Weather Roundup
Issued by NWS Jackson, KY

Home | Current Version | Previous Version | Text Only | Print | Product List | Glossary Off
Versions: 1 2 3 4 5 6 7 8 9 10 11 12 13 14 15 16 17 18 19 20 21 22 23 24 25 26 27

000
ASUS43 KJKL 240110
RWRJKL

EAST KENTUCKY HOURLY WEATHER ROUNDUP
NATIONAL WEATHER SERVICE JACKSON KY
900 PM EDT MON MAY 23 2016

NOTE: "FAIR" INDICATES FEW OR NO CLOUDS BELOW 12,000 FEET WITH
NO SIGNIFICANT WEATHER AND/OR OBSTRUCTIONS TO VISIBILITY.

* THESE REPORTS ARE NOT UNDER NWS QUALITY CONTROL AND MAY NOT
  REPORT WEATHER SUCH AS PRECIPITATION AND FOG.

KYZ079-080-083-085-087-088-110-112-115-119-120-240200
...EASTERN KENTUCKY...

CITY           SKY/WX    TMP DP  RH WIND       PRES   REMARKS
JACKSON        CLEAR     66  48  52 CALM      30.04R
LONDON         CLEAR     67  48  50 CALM      30.03R
SOMERSET*      CLEAR     64  50  59 CALM      30.03R
MONTICELLO*    CLEAR     62  53  72 N5        30.03R
WILLIAMSBURG*  CLEAR     63  46  55 NE3       30.02S
MIDDLESBORO*   CLEAR     65  54  67 CALM      30.03R
HARLAN APT*      N/A     63  46  55 CALM      30.04R
HAZARD APT*    CLEAR     66  52  59 CALM      30.04R
PIKE CO APT*     N/A     66  49  54 CALM      30.04S
BIG SANDY APT* CLEAR     64  53  66 CALM      30.04R
MOREHEAD APT*  CLEAR     66  54  63 CALM      30.05R
ASHLAND*       CLEAR     64  55  72 CALM      30.00S
$$

KYZ035-036-041-042-044-050-067-078-099-240200
...CENTRAL KENTUCKY...

CITY           SKY/WX    TMP DP  RH WIND       PRES   REMARKS
MT STERLING*   CLEAR     64  54  68 CALM      30.04S
FLEMING/MASON* CLEAR     68  51  53 CALM      30.04S
DANVILLE*      CLEAR     64  52  63 CALM      30.03R
RICHMOND*      CLEAR     68  48  49 CALM      30.02S
LEXINGTON      CLEAR     70  49  47 CALM      30.03R
FRANKFORT      CLEAR     69  49  48 E3        30.01R
LOUISVILLE     PTCLDY    73  45  36 E5        29.99R
LEBANON*         N/A     68  48  49 CALM      30.02R
GLASGOW*       CLEAR     65  50  58 CALM      30.00R
BOWLING GREEN  CLEAR     71  50  47 CALM      29.99R
$$

KYZ091>093-OHZ055-061-077-WVZ005-015-034-035-042-240200
...SOUTHERN OHIO/WEST VIRGINIA...

CITY           SKY/WX    TMP DP  RH WIND       PRES   REMARKS
COVINGTON      CLEAR     68  50  52 CALM      30.02R
COLUMBUS       PTCLDY    70  49  47 SW5       30.00S
DAYTON         CLEAR     71  45  39 S5        30.02R
WILMINGTON     CLEAR     66  53  63 CALM      30.02R
HUNTINGTON       N/A     67  53  61 CALM      30.02R
CHARLESTON       N/A     65  54  67 CALM      30.02R
PINEVILLE*       N/A     56  52  87 MISG      30.10R
BECKLEY          N/A     57  49  74 CALM      30.06R
BLUEFIELD        N/A     53  50  89 W6        30.08S
LOGAN CO APT*    N/A     64  50  59 CALM      30.04R
$$

VAZ002-007-008-TNZ017-027-036-066-071-240200
...SOUTHWEST VIRGINIA/EAST TENNESSEE...

CITY           SKY/WX    TMP DP  RH WIND       PRES   REMARKS
WISE*            N/A     61  41  48 CALM      30.09S
JONESVILLE*      N/A     64  54  68 CALM      30.06R
ABINGDON*        N/A     60  51  72 CALM      30.07R
BRISTOL        PTCLDY    61  52  72 CALM      30.04R
SEVIERVILLE*   CLEAR     64  48  55 CALM      30.01R
KNOXVILLE      CLEAR     70  48  45 E5        30.00R
OAK RIDGE      CLEAR     68  48  48 CALM      30.01R
CROSSVILLE     CLEAR     68  42  38 N5        30.04R
NASHVILLE      PTCLDY    74  46  36 NE6       29.99R
$$

...KEY TO REMARKS...
VSB - VISIBILITY IN MILES
WCI - WIND CHILL INDEX
HX  - HEAT INDEX

$$




USA.gov is the U.S. government's official web portal to all federal, state and local government web resources and services.